This demonstration page uses our WeatherBlox Daily Observations layout. Learn more.

Left ArrowRight Arrow

31.31129, -92.44514

Hourly Observations for August 6, 2016

Temp ( °F °C ) Dew Point ( °F °C ) Humidity (%) Winds ( mph kmh ) Pressure ( in mb ) Visibility ( mi km ) Precip ( " mm )
12:53 am 00:53 Clear 77 25 75 23.9 94 94 SSE 3 6 29.95 1014 9 14 0.00 0.00
1:53 am 01:53 Clear 76 24.4 75 23.9 97 97 SSE 3 6 29.95 1014 8 13 0.00 0.00
2:53 am 02:53 Clear 76 24.4 74 23.3 94 94 S 3 6 29.96 1015 8 13 0.00 0.00
3:53 am 03:53 Clear 75 23.9 74 23.3 96 96 Calm 29.95 1014 8 13 0.00 0.00
4:53 am 04:53 Clear 75 23.9 74 23.3 96 96 Calm 29.96 1014 7 11 0.00 0.00
5:53 am 05:53 Clear with Mist and Fog 75 23.9 74 23.3 96 96 Calm 29.96 1015 6 10 0.00 0.00
6:53 am 06:53 Sunny with Mist and Fog 75 23.9 74 23.3 96 96 Calm 29.96 1015 6 10 0.00 0.00
7:53 am 07:53 Sunny 78 25.6 76 24.4 93 93 WSW 5 7 29.98 1015 7 11 0.00 0.00
8:53 am 08:53 Sunny 83 28.3 78 25.6 85 85 W 7 11 29.98 1015 10 16 0.00 0.00
9:53 am 09:53 Sunny 87 30.6 76 24.4 70 70 W 6 9 29.97 1015 10 16 0.00 0.00
10:53 am 10:53 Sunny 90 32.2 76 24.4 63 63 VRB 6 9 29.98 1015 10 16 0.00 0.00
11:53 am 11:53 Sunny 92 33.3 77 25 62 62 WSW 7 11 29.97 1015 10 16 0.00 0.00
12:53 pm 12:53 Cloudy 91 32.8 75 23.9 59 59 NW 5 7 29.96 1015 10 16 0.00 0.00
1:53 pm 13:53 Sunny 95 35 75 23.9 53 53 W 6 9 29.93 1014 10 16 0.00 0.00
2:53 pm 14:53 Mostly Sunny 95 35 75 23.9 53 53 S 5 7 29.91 1013 10 16 0.00 0.00
3:53 pm 15:53 Sunny with Nearby Thunderstorms 95 35 74 23.3 51 51 WSW 5 7 29.88 1012 10 16 0.00 0.00
4:21 pm 16:21 Mostly Cloudy 91 32.8 76 24.4 61 61 NNW 15 24 29.88 1012 10 16 0.00 0.00
4:32 pm 16:32 Partly Cloudy with Thunderstorms 87 30.6 76 24.4 70 70 NW 10 17 29.88 1012 10 16 0.00 0.00
4:51 pm 16:51 Partly Cloudy with Nearby Thunderstorms 93 34 73 23 53 53 NNE 9 15 29.88 1012 10 16 0.00 0.00
4:53 pm 16:53 Partly Cloudy with Thunderstorms 93 33.9 75 23.9 56 56 NE 9 15 29.90 1012 10 16 0.00 0.00
5:20 pm 17:20 Partly Cloudy with Nearby Thunderstorms 91 32.8 76 24.4 61 61 VRB 7 11 29.91 1013 10 16 0.00 0.00
5:53 pm 17:53 Partly Cloudy with Nearby Thunderstorms 89 31.7 76 24.4 65 65 N 8 13 29.91 1013 10 16 0.00 0.00
6:04 pm 18:04 Partly Cloudy 88 31.1 77 25 70 70 ENE 10 17 29.91 1013 10 16 0.00 0.00
6:53 pm 18:53 Mostly Sunny 83 28.3 73 22.8 72 72 ESE 8 13 29.93 1014 10 16 0.00 0.00
7:53 pm 19:53 Sunny 81 27.2 75 23.9 82 82 Calm 29.94 1014 10 16 0.00 0.00
8:53 pm 20:53 Clear 81 27.2 75 23.9 82 82 E 5 7 29.92 1013 10 16 0.00 0.00
9:53 pm 21:53 Clear 79 26.1 76 24.4 90 90 SSE 7 11 29.93 1013 10 16 0.00 0.00
10:53 pm 22:53 Clear 78 25.6 75 23.9 90 90 Calm 29.94 1014 10 16 0.00 0.00
11:53 pm 23:53 Clear 79 26.1 75 23.9 88 88 SE 6 9 29.94 1014 10 16 0.00 0.00

Powered by AerisWeather